Location: Chandler
(33.3060°N, 111.8410°W)
Time: 15:37:17
(UTC-07:00)

Amateur Radio Satellites - All Passes

Search period start: 27 April 2017 15:07
Search period end: 28 April 2017 15:07
Location: Chandler, 33.3060°N, 111.8410°W

Satellite Date Start Highest point End Downlink Frequencies (MHz)
Time Altitude Azimuth
YUBILEINY 27 Apr 15:13:52 15:22:36 65° 82° (E) 15:31:18 435.215
ITAMSAT 1 27 Apr 15:18:48 15:23:58 68° 258° (WSW) 15:29:08 435.822/435.867
SO-50 27 Apr 15:24:08 15:28:39 87° 241° (WSW) 15:33:09 436.795
Tancredo 1 27 Apr 15:38:12 15:40:50 26° 230° (SW) 15:43:28 437.200
ITUPSAT 1 27 Apr 15:40:25 15:45:09 68° 286° (WNW) 15:49:54 437.325
AO-7 27 Apr 15:46:52 15:54:58 57° 257° (WSW) 16:03:06 .
ISS 27 Apr 16:07:21 16:09:39 18° 232° (SW) 16:11:58 437.550
DOVE 4 27 Apr 16:18:47 16:21:05 13° 66° (ENE) 16:23:23 437.250
MOZHAYETS 4 27 Apr 16:21:17 16:25:43 46° 286° (WNW) 16:30:07
KKS-1 27 Apr 16:26:27 16:30:16 28° 97° (E) 16:34:02 437.445
CUTE-I 27 Apr 16:37:44 16:39:30 12° 63° (ENE) 16:41:16 437.470
BEESAT 27 Apr 16:38:15 16:41:12 17° 293° (WNW) 16:44:09 436.000
JUGNU 27 Apr 16:43:46 16:47:43 19° 171° (S) 16:51:42 437.505
STARS 27 Apr 16:55:26 16:58:58 24° 97° (E) 17:02:30 437.465
RS-15 27 Apr 17:04:14 17:16:16 72° 247° (WSW) 17:27:41 29.354- 29.394
YUBILEINY 27 Apr 17:12:19 17:18:33 22° 278° (W) 17:24:49 435.215
CUBESAT XI-V 27 Apr 17:14:50 17:19:33 78° 284° (WNW) 17:24:15 437.345
XW-2D 27 Apr 17:25:34 17:28:54 31° 73° (ENE) 17:32:14 145.860 - 145.880
XW-2B 27 Apr 17:32:23 17:35:50 37° 74° (ENE) 17:39:19 145.730 - 145.750
KAITUO 1B 27 Apr 17:39:23 17:42:47 36° 74° (ENE) 17:46:11 145.475/437.950
HO-68 27 Apr 17:43:25 17:47:58 18° 60° (ENE) 17:52:32 435.675
XW-2C 27 Apr 17:44:07 17:47:47 57° 76° (ENE) 17:51:28 145.795 - 145.815
LilacSat-2 27 Apr 17:44:24 17:48:05 61° 76° (ENE) 17:51:48 437.200
DOVE 4 27 Apr 17:52:52 17:58:08 68° 259° (W) 18:03:23 437.250
KKS-1 27 Apr 18:03:17 18:06:36 21° 291° (WNW) 18:09:54 437.445
NO-84 27 Apr 18:05:08 18:08:56 46° 128° (SE) 18:12:24 435.350 FM
XW-2F 27 Apr 18:08:46 18:12:26 64° 259° (W) 18:16:09 145.980 - 146.000
SRMSAT 27 Apr 18:09:35 18:12:19 13° 165° (SSE) 18:15:04 437.500
XW-2A 27 Apr 18:12:03 18:12:43 10° 69° (ENE) 18:13:24 145.665 - 145.685
CUTE-I 27 Apr 18:13:30 18:18:50 76° 257° (WSW) 18:24:11 437.470
NUDT-PHONESAT 27 Apr 18:16:52 18:20:29 62° 259° (W) 18:24:07 437.300
JUGNU 27 Apr 18:31:41 18:36:06 22° 181° (S) 18:40:31 437.505
STARS 27 Apr 18:31:44 18:35:10 23° 290° (WNW) 18:38:36 437.465
CUBEBUG 2 27 Apr 18:34:46 18:36:15 12° 68° (ENE) 18:37:45 437.445
CUTE 1.7 + AOD 2 27 Apr 18:50:33 18:54:30 41° 74° (ENE) 18:58:28 437.475
XW-2D 27 Apr 19:01:37 19:03:09 12° 267° (W) 19:04:40 145.860 - 145.880
SEEDS 27 Apr 19:08:19 19:12:15 42° 74° (ENE) 19:16:13 437.485
XW-2B 27 Apr 19:09:53 19:10:09 10° 267° (W) 19:10:26 145.730 - 145.750
M-CUBED/EXP-1 PRIME 27 Apr 19:12:41 19:15:18 17° 98° (E) 19:17:47 437.505
KAITUO 1B 27 Apr 19:16:30 19:16:54 10° 267° (W) 19:17:19 145.475/437.950
AO-73 27 Apr 19:19:19 19:19:40 10° 67° (ENE) 19:20:01 145.935
RS-15 27 Apr 19:22:38 19:26:23 12° 264° (W) 19:30:07 29.354- 29.394
HO-68 27 Apr 19:27:47 19:34:53 74° 256° (WSW) 19:42:05 435.675
Oscar 11 27 Apr 19:31:43 19:33:41 13° 67° (ENE) 19:35:39 .
XW-2A 27 Apr 19:42:10 19:45:08 29° 262° (W) 19:48:07 145.665 - 145.685
NO-84 27 Apr 19:44:12 19:46:35 16° 320° (NW) 19:48:51 435.350 FM
O/OREOS (USA 219) 27 Apr 19:50:07 19:54:37 55° 69° (ENE) 19:59:03 437.305
UWE-3 27 Apr 19:52:26 19:56:39 58° 76° (ENE) 20:00:47 435.000/436.395/437.385
STRAND 1 27 Apr 19:55:01 20:00:08 89° 103° (ESE) 20:05:15 437.568
SRMSAT 27 Apr 19:56:28 20:00:49 21° 174° (S) 20:05:11 437.500
CUBEBUG 2 27 Apr 20:08:11 20:12:27 49° 260° (W) 20:16:36 437.445
AAUSAT CUBESAT 2 27 Apr 20:12:24 20:16:30 66° 259° (W) 20:20:39 437.432
JUGNU 27 Apr 20:20:49 20:24:28 17° 191° (SSW) 20:28:07 437.505
CUTE 1.7 + AOD 2 27 Apr 20:28:43 20:30:28 12° 267° (W) 20:32:14 437.475
ZACube-1 27 Apr 20:45:10 20:49:18 55° 260° (W) 20:53:23 437.345
DELFI C3 27 Apr 20:46:08 20:49:23 25° 72° (ENE) 20:52:40 145.870
M-CUBED/EXP-1 PRIME 27 Apr 20:46:20 20:49:46 27° 294° (WNW) 20:52:58 437.505
SEEDS 27 Apr 20:46:30 20:48:05 12° 267° (W) 20:49:42 437.485
AO-73 27 Apr 20:51:20 20:55:25 52° 260° (W) 20:59:28 145.935
AO-85 27 Apr 21:03:52 21:07:44 45° 59° (ENE) 21:11:48 145.980
Oscar 11 27 Apr 21:05:18 21:09:23 43° 261° (W) 21:13:29 .
OBJECT BX 27 Apr 21:08:29 21:11:44 32° 74° (ENE) 21:15:01 145.990 - 145.960
UNISAT 6 27 Apr 21:27:22 21:29:40 14° 94° (E) 21:31:57 437.425
O/OREOS (USA 219) 27 Apr 21:32:45 21:33:25 10° 263° (W) 21:34:06 437.305
SRMSAT 27 Apr 21:44:59 21:49:23 21° 185° (S) 21:53:46 437.500
FO-29 27 Apr 21:54:09 21:58:29 25° 97° (E) 22:03:04 435.910
PRISM 27 Apr 22:05:19 22:09:27 71° 102° (ESE) 22:13:32 437.425
LO-87 27 Apr 22:08:24 22:11:16 22° 72° (ENE) 22:14:09 145.935 - 145.965
DELFI C3 27 Apr 22:21:17 22:24:05 18° 265° (W) 22:26:55 145.870
BEESAT 3 27 Apr 22:27:48 22:31:48 69° 61° (ENE) 22:35:44 437.485
BEESAT 2 27 Apr 22:30:05 22:33:30 25° 55° (NE) 22:36:52 435.950
TIGRISAT 27 Apr 22:40:33 22:44:51 79° 283° (WNW) 22:49:12 435.000
ESTCUBE 1 27 Apr 22:40:44 22:44:47 34° 72° (ENE) 22:48:51 437.505/2401.250
OBJECT BX 27 Apr 22:44:27 22:45:30 11° 267° (W) 22:46:32 145.990 - 145.960
AO-85 27 Apr 22:46:17 22:47:45 12° 251° (WSW) 22:49:15 145.980
VELOX 1 27 Apr 22:51:00 22:52:23 11° 65° (ENE) 22:53:45 145.980
UNISAT 6 27 Apr 23:02:28 23:06:28 38° 286° (WNW) 23:10:30 437.425
QB50P2 27 Apr 23:06:45 23:08:38 13° 93° (E) 23:10:31 145.880/145.840
NANOSAT C BR1 27 Apr 23:26:20 23:29:17 19° 95° (E) 23:32:14 145.865
SRMSAT 27 Apr 23:34:54 23:37:53 14° 194° (SSW) 23:40:52 437.500
DX 1 27 Apr 23:37:22 23:39:39 14° 67° (ENE) 23:41:56 434.975-435.025
FO-29 27 Apr 23:38:54 23:43:33 32° 289° (WNW) 23:48:30 435.910
SPROUT 27 Apr 23:40:17 23:44:14 38° 73° (ENE) 23:48:12 437.525
LO-87 27 Apr 23:42:15 23:44:37 16° 265° (W) 23:47:00 145.935 - 145.965
AIST 2D 27 Apr 23:52:55 23:56:26 72° 283° (WNW) 23:59:57 435.315
EO-79 27 Apr 23:54:07 23:58:10 46° 100° (E) 00:02:12 145.935-145.965
DUCHIFAT 1 27 Apr 23:54:34 23:58:27 37° 99° (E) 00:02:19 145.980
50 SAT 28 Apr 00:06:03 00:09:21 43° 75° (ENE) 00:12:41 437.505
BEESAT 2 28 Apr 00:08:00 00:11:05 21° 250° (WSW) 00:14:10 435.950
ESTCUBE 1 28 Apr 00:18:40 00:21:37 17° 266° (W) 00:24:37 437.505/2401.250
VELOX 1 28 Apr 00:23:55 00:28:17 56° 259° (W) 00:32:41 145.980
POLYITAN 1 28 Apr 00:33:46 00:37:52 53° 285° (WNW) 00:41:57 437.675
UKube-1 28 Apr 00:35:22 00:39:29 45° 73° (ENE) 00:43:37 .
QB50P2 28 Apr 00:40:37 00:44:33 40° 286° (WNW) 00:48:28 145.880/145.840
BUGSAT 1 28 Apr 00:50:35 00:54:30 51° 100° (E) 00:58:24 437.445
PCSat 28 Apr 00:53:34 00:58:20 33° 108° (ESE) 01:03:08 145.827
NANOSAT C BR1 28 Apr 01:01:25 01:04:56 27° 289° (WNW) 01:08:29 145.865
DX 1 28 Apr 01:11:16 01:15:25 42° 260° (W) 01:19:35 434.975-435.025
SPROUT 28 Apr 01:18:04 01:20:15 14° 266° (W) 01:22:25 437.525
DUCHIFAT 1 28 Apr 01:31:32 01:33:46 14° 292° (WNW) 01:35:59 145.980
EO-79 28 Apr 01:31:58 01:33:28 12° 293° (WNW) 01:34:57 145.935-145.965
BEESAT 28 Apr 02:01:45 02:05:53 31° 71° (ENE) 02:10:02 436.000
Oscar 19 28 Apr 02:06:41 02:11:54 78° 285° (WNW) 02:17:04 437.125/150
UKube-1 28 Apr 02:14:00 02:15:41 12° 267° (W) 02:17:22 .
YUBILEINY 28 Apr 02:19:20 02:22:25 12° 78° (ENE) 02:25:30 435.215
Gurwin Techsat 1B 28 Apr 02:20:06 02:25:27 80° 103° (ESE) 02:30:45 435.225
NO-84 28 Apr 02:20:19 02:23:00 37° 45° (NE) 02:25:40 435.350 FM
PCSat 28 Apr 02:37:03 02:41:40 28° 304° (WNW) 02:46:20 145.827
ITUPSAT 1 28 Apr 02:42:41 02:47:26 87° 75° (ENE) 02:52:13 437.325
MOZHAYETS 4 28 Apr 03:18:28 03:23:00 82° 258° (WSW) 03:27:34
KKS-1 28 Apr 03:21:18 03:24:06 17° 68° (ENE) 03:26:54 437.445
ITAMSAT 1 28 Apr 03:35:49 03:40:56 60° 101° (ESE) 03:46:02 435.822/435.867
BEESAT 28 Apr 03:40:01 03:43:37 22° 264° (W) 03:47:16 436.000
STARS 28 Apr 03:49:13 03:51:28 14° 67° (ENE) 03:53:41 437.465
AO-7 28 Apr 03:52:51 04:01:08 66° 105° (ESE) 04:09:23 .
Gurwin Techsat 1B 28 Apr 04:03:26 04:04:38 11° 298° (WNW) 04:05:51 435.225
YUBILEINY 28 Apr 04:09:06 04:17:47 84° 95° (E) 04:26:31 435.215
CUBESAT XI-V 28 Apr 04:13:34 04:18:08 62° 76° (ENE) 04:22:46 437.345
KKS-1 28 Apr 04:56:11 05:00:18 37° 261° (W) 05:04:28 437.445
RS-15 28 Apr 05:11:27 05:20:39 27° 102° (ESE) 05:30:02 29.354- 29.394
ITAMSAT 1 28 Apr 05:17:16 05:19:50 14° 296° (WNW) 05:22:24 435.822/435.867
STARS 28 Apr 05:23:10 05:27:22 44° 260° (W) 05:31:35 437.465
SO-50 28 Apr 05:33:58 05:38:36 83° 117° (ESE) 05:43:11 436.795
XW-2F 28 Apr 05:45:51 05:48:22 17° 95° (E) 05:50:51 145.980 - 146.000
AO-7 28 Apr 05:46:52 05:53:11 25° 301° (WNW) 05:59:32 .
NUDT-PHONESAT 28 Apr 05:52:21 05:54:41 16° 95° (E) 05:57:00 437.300
M-CUBED/EXP-1 PRIME 28 Apr 05:54:13 05:56:54 15° 62° (ENE) 05:59:36 437.505
DOVE 4 28 Apr 05:56:50 06:01:08 44° 98° (E) 06:05:12 437.250
YUBILEINY 28 Apr 06:10:34 06:15:34 16° 292° (WNW) 06:20:36 435.215
Tancredo 1 28 Apr 06:32:52 06:35:52 50° 133° (SE) 06:38:53 437.200
CUTE-I 28 Apr 06:34:48 06:40:04 62° 101° (ESE) 06:45:18 437.470
XW-2D 28 Apr 06:35:32 06:39:22 90° 106° (ESE) 06:43:12 145.860 - 145.880
XW-2B 28 Apr 06:42:32 06:46:21 75° 284° (WNW) 06:50:09 145.730 - 145.750
KAITUO 1B 28 Apr 06:48:00 06:51:46 81° 283° (WNW) 06:55:34 145.475/437.950
XW-2C 28 Apr 06:54:38 06:58:20 49° 284° (WNW) 07:02:02 145.795 - 145.815
LilacSat-2 28 Apr 06:55:39 06:59:21 45° 285° (WNW) 07:03:02 437.200
HO-68 28 Apr 07:00:50 07:06:47 27° 96° (E) 07:12:42 435.675
STRAND 1 28 Apr 07:06:35 07:11:40 82° 76° (ENE) 07:16:47 437.568
ISS 28 Apr 07:07:03 07:10:18 82° 318° (NW) 07:13:34 437.550
XW-2A 28 Apr 07:08:15 07:10:41 18° 96° (E) 07:13:06 145.665 - 145.685
SO-50 28 Apr 07:18:33 07:19:36 11° 314° (NW) 07:20:38 436.795
XW-2F 28 Apr 07:19:18 07:22:26 25° 288° (WNW) 07:25:34 145.980 - 146.000
RS-15 28 Apr 07:19:56 07:31:53 74° 300° (WNW) 07:44:19 29.354- 29.394
NUDT-PHONESAT 28 Apr 07:25:28 07:28:33 25° 287° (WNW) 07:31:37 437.300
M-CUBED/EXP-1 PRIME 28 Apr 07:26:24 07:30:50 50° 256° (WSW) 07:35:23 437.505
DOVE 4 28 Apr 07:36:14 07:38:20 13° 294° (WNW) 07:40:22 437.250
UWE-3 28 Apr 07:47:02 07:49:37 16° 94° (E) 07:52:14 435.000/436.395/437.385
AAUSAT CUBESAT 2 28 Apr 07:59:01 08:02:30 25° 96° (E) 08:05:56 437.432
CUBEBUG 2 28 Apr 08:02:45 08:06:45 43° 99° (E) 08:10:49 437.445
Tancredo 1 28 Apr 08:10:16 08:11:58 14° 328° (NNW) 08:13:40 437.200
CUTE 1.7 + AOD 2 28 Apr 08:14:50 08:19:01 53° 285° (WNW) 08:23:11 437.475
CUTE-I 28 Apr 08:16:51 08:19:31 14° 296° (WNW) 08:22:11 437.470
O/OREOS (USA 219) 28 Apr 08:22:42 08:23:37 11° 97° (E) 08:24:31 437.305
SEEDS 28 Apr 08:31:24 08:35:33 53° 285° (WNW) 08:39:41 437.485
ZACube-1 28 Apr 08:37:16 08:41:11 35° 98° (E) 08:45:11 437.345
XW-2A 28 Apr 08:41:05 08:43:16 16° 289° (WNW) 08:45:28 145.665 - 145.685
AO-73 28 Apr 08:43:01 08:46:58 37° 98° (E) 08:51:00 145.935
ISS 28 Apr 08:46:40 08:47:14 10° 332° (NNW) 08:47:48 437.550
HO-68 28 Apr 08:47:48 08:54:36 47° 291° (WNW) 09:01:25 435.675
PRISM 28 Apr 08:50:36 08:54:08 28° 71° (ENE) 08:57:41 437.425
Oscar 11 28 Apr 08:56:21 09:00:31 44° 99° (E) 09:04:39 .
UWE-3 28 Apr 09:22:19 09:26:06 33° 287° (WNW) 09:29:58 435.000/436.395/437.385
AAUSAT CUBESAT 2 28 Apr 09:34:39 09:37:46 21° 290° (WNW) 09:40:52 437.432
TIGRISAT 28 Apr 09:34:53 09:39:09 52° 75° (ENE) 09:43:20 435.000
RS-15 28 Apr 09:38:03 09:46:56 22° 325° (NW) 09:55:59 29.354- 29.394
CUBEBUG 2 28 Apr 09:41:13 09:42:59 12° 292° (WNW) 09:44:45 437.445
FO-29 28 Apr 09:45:40 09:52:00 62° 75° (ENE) 09:57:38 435.910
PCSat 28 Apr 09:47:07 09:49:24 13° 49° (NE) 09:51:41 145.827
UNISAT 6 28 Apr 09:56:32 10:00:56 77° 257° (WSW) 10:05:16 437.425
O/OREOS (USA 219) 28 Apr 09:57:56 10:02:25 55° 291° (WNW) 10:06:57 437.305
DELFI C3 28 Apr 10:00:59 10:04:59 73° 102° (ESE) 10:08:57 145.870
OBJECT BX 28 Apr 10:14:19 10:18:00 82° 102° (ESE) 10:21:40 145.990 - 145.960
ZACube-1 28 Apr 10:14:37 10:17:10 16° 291° (WNW) 10:19:44 437.345
AO-73 28 Apr 10:20:28 10:22:53 15° 291° (WNW) 10:25:19 145.935
AIST 2D 28 Apr 10:23:58 10:26:28 19° 72° (ENE) 10:28:58 435.315
PRISM 28 Apr 10:26:29 10:29:22 18° 265° (W) 10:32:17 437.425
Oscar 11 28 Apr 10:34:10 10:36:12 13° 293° (WNW) 10:38:15 .
EO-79 28 Apr 10:43:01 10:46:09 20° 70° (ENE) 10:49:16 145.935-145.965
DUCHIFAT 1 28 Apr 10:43:15 10:45:54 17° 69° (ENE) 10:48:33 145.980
LO-87 28 Apr 11:11:57 11:15:24 48° 100° (E) 11:18:49 145.935 - 145.965
AO-85 28 Apr 11:14:15 11:18:26 42° 115° (ESE) 11:22:21 145.980
TIGRISAT 28 Apr 11:15:26 11:16:02 10° 267° (W) 11:16:37 435.000
POLYITAN 1 28 Apr 11:21:41 11:25:50 62° 76° (ENE) 11:30:00 437.675
PCSat 28 Apr 11:28:01 11:33:28 85° 243° (WSW) 11:38:52 145.827
QB50P2 28 Apr 11:28:20 11:32:33 84° 77° (ENE) 11:36:47 145.880/145.840
FO-29 28 Apr 11:33:37 11:37:12 15° 265° (W) 11:40:37 435.910
BUGSAT 1 28 Apr 11:36:41 11:39:48 21° 70° (ENE) 11:42:54 437.445
NANOSAT C BR1 28 Apr 11:48:19 11:52:29 66° 258° (WSW) 11:56:41 145.865
AIST 2D 28 Apr 11:57:12 11:59:33 17° 265° (W) 12:01:55 435.315
RS-15 28 Apr 12:03:08 12:06:45 11° 3° (N) 12:10:22 29.354- 29.394
ESTCUBE 1 28 Apr 12:13:24 12:17:53 59° 285° (WNW) 12:22:20 437.505/2401.250
BEESAT 3 28 Apr 12:13:48 12:17:14 30° 112° (ESE) 12:20:44 437.485
DUCHIFAT 1 28 Apr 12:17:32 12:21:17 32° 262° (W) 12:25:02 145.980
VELOX 1 28 Apr 12:18:09 12:22:14 36° 99° (E) 12:26:17 145.980
EO-79 28 Apr 12:18:12 12:21:43 25° 263° (W) 12:25:14 145.935-145.965
BEESAT 2 28 Apr 12:19:39 12:20:52 11° 107° (ESE) 12:22:06 435.950
UKube-1 28 Apr 12:29:56 12:30:03 10° 93° (E) 12:30:11 .
AO-85 28 Apr 12:56:23 12:58:56 15° 308° (NW) 13:01:23 145.980
AO-7 28 Apr 13:02:39 13:04:02 10° 50° (NE) 13:05:26 .
Tancredo 1 28 Apr 13:03:21 13:04:03 11° 29° (NNE) 13:04:44 437.200
DX 1 28 Apr 13:03:21 13:07:30 43° 100° (E) 13:11:37 434.975-435.025
SPROUT 28 Apr 13:05:25 13:09:35 58° 285° (WNW) 13:13:45 437.525
50 SAT 28 Apr 13:06:03 13:09:32 90° 72° (ENE) 13:12:59 437.505
BUGSAT 1 28 Apr 13:11:36 13:14:59 24° 263° (W) 13:18:20 437.445
Oscar 19 28 Apr 13:19:09 13:24:18 82° 256° (WSW) 13:29:30 437.125/150
Gurwin Techsat 1B 28 Apr 13:36:54 13:42:13 84° 75° (ENE) 13:47:33 435.225
ISS 28 Apr 13:38:51 13:41:08 17° 33° (NNE) 13:43:24 437.550
BEESAT 3 28 Apr 13:52:05 13:54:50 18° 307° (NW) 13:57:38 437.485
BEESAT 2 28 Apr 13:54:23 13:58:10 44° 301° (WNW) 14:02:01 435.950
VELOX 1 28 Apr 13:55:36 13:58:20 16° 292° (WNW) 14:01:03 145.980
UKube-1 28 Apr 14:02:07 14:06:19 52° 286° (WNW) 14:10:29 .
BEESAT 28 Apr 14:08:42 14:09:28 10° 92° (E) 14:10:13 436.000
SO-50 28 Apr 14:09:46 14:13:24 23° 53° (NE) 14:17:00 436.795
RS-15 28 Apr 14:16:13 14:25:59 26° 39° (NE) 14:35:21 29.354- 29.394
YUBILEINY 28 Apr 14:24:59 14:32:46 34° 75° (ENE) 14:40:31 435.215
Tancredo 1 28 Apr 14:37:12 14:40:18 82° 224° (SW) 14:43:23 437.200
DX 1 28 Apr 14:41:06 14:43:16 14° 293° (WNW) 14:45:25 434.975-435.025
JUGNU 28 Apr 14:42:46 14:44:17 11° 163° (SSE) 14:45:48 437.505
AO-7 28 Apr 14:47:02 14:55:08 62° 69° (ENE) 15:03:16 .
ITUPSAT 1 28 Apr 14:47:38 14:51:51 30° 98° (E) 14:56:03 437.325
ITAMSAT 1 28 Apr 14:49:33 14:54:39 60° 74° (ENE) 14:59:46 435.822/435.867
